Tracking 31027 objects as of 19-Jul-2025
HD Live streaming from Space Station
objects crossing your sky now

STARLINK-4284

Track STARLINK-4284 now!
10-day predictions
STARLINK-4284 is classified as:


NORAD ID: 53023
Int'l Code: 2022-076AP
Perigee: 546.0 km
Apogee: 547.8 km
Inclination: 53.2 °
Period: 95.4 minutes
Semi major axis: 6917 km
RCS: Unknown
Launch date: July 7, 2022
Source: United States (US)
Launch site: AIR FORCE EASTERN TEST RANGE (AFETR)
Your satellite tracking list
CZ-4C DEB
Track 1 satellite(s)




NASA's NSSDC Master Catalog

Two Line Element Set (TLE):
1 53023U 22076AP  25199.56845639 -.00000078  00000-0  13168-4 0  9991
2 53023  53.2176  55.1214 0001280  90.5539 269.5600 15.08830434167647
Source of the keplerian elements: AFSPC